RH
77 74 73 73 73 66 76 91 100 88 87 73 85 84 87 65 66 63 62 61 68 76 80 80 79 79 75 76 77 77 80 80 87 88 92 91 92 92 90 89 85 81 83 85
75 76 64 59 44 55 58 74 80 85 84 64 87 85 90 80 68 69 66 65 67 66 68 71 73 72 74 78 75 75 76 78 76 78 80 85 87 91 94 92 90 88 86 82
73 76 70 56 66 51 60 76 83 90 72 86 92 86 89 88 78 77 71 71 73 71 72 74 72 72 76 76 73 75 75 74 76 75 74 76 77 78 84 90 92 93 93 91
91 74 79 42 37 54 78 71 72 70 77 87 88 84 83 79 84 86 85 80 77 74 72 72 70 72 74 73 73 74 74 74 74 75 76 77 80 81 84 88 91 93 92 92
86 90 62 52 62 70 74 65 66 73 71 88 86 82 94 85 82 86 84 83 78 74 74 73 73 72 74 73 73 75 76 76 75 77 78 78 82 84 84 87 90 94 94 93
95 89 86 56 66 67 66 84 84 76 77 90 74 95 98 89 86 85 81 77 77 75 73 75 75 72 74 78 79 81 79 76 78 76 76 80 81 84 84 87 89 89 87 88
94 94 77 63 80 74 87 83 85 82 83 86 93 91 96 93 97 89 72 71 70 74 80 81 73 72 77 80 82 76 73 74 77 75 78 79 82 82 84 85 85 90 89 89
89 92 89 84 79 78 93 87 83 81 82 90 89 85 86 85 89 86 76 75 75 80 84 81 75 73 80 86 75 74 77 78 77 79 72 73 80 83 86 85 88 88 89 89
80 81 86 81 83 77 84 92 89 94 94 84 87 93 96 94 93 90 79 79 76 79 84 82 78 79 85 88 78 78 79 77 76 76 75 76 81 84 82 84 86 88 88 91
100 91 86 82 79 82 75 76 87 92 95 100 99 97 97 96 91 82 80 80 76 79 84 88 83 84 86 80 78 78 82 81 79 78 78 78 78 81 85 86 87 87 84 88
98 98 96 97 98 97 89 88 90 88 88 94 91 92 83 83 83 82 82 81 79 81 83 86 83 85 85 78 77 78 82 83 87 85 86 85 90 90 88 94 87 89 94 93
99 99 100 100 99 96 94 95 85 80 81 77 82 88 89 89 81 81 85 85 85 87 84 87 85 87 89 88 77 83 87 89 94 92 91 87 83 89 83 86 85 86 85 87
100 100 99 97 96 93 92 94 96 95 94 91 83 78 77 84 85 85 88 90 94 95 94 94 94 95 95 94 92 91 95 92 92 92 92 93 94 93 96 88 81 82 83 84
96 99 94 93 92 88 76 74 76 74 76 80 81 77 78 82 82 84 90 93 88 91 94 95 94 96 96 96 94 94 96 95 97 97 97 97 98 98 97 97 97 96 88 88
75 74 76 74 73 72 68 72 76 77 75 79 75 80 77 84 84 87 87 83 82 89 94 94 94 96 96 96 96 98 97 98 98 98 98 98 98 97 96 95 95 96 93 92
75 74 74 78 81 77 74 74 78 78 76 77 79 83 84 82 86 88 88 87 85 92 94 97 95 97 96 95 96 97 98 94 97 98 98 97 96 95 95 95 95 96 96 98
90 85 85 85 81 80 84 81 76 78 82 82 87 88 86 85 85 88 93 94 96 98 98 98 99 97 96 96 97 99 99 98 96 96 97 97 97 97 96 96 96 96 98 98
89 90 88 82 81 80 82 83 84 84 90 90 92 94 95 94 96 97 96 93 93 96 98 98 98 96 97 96 97 97 98 97 95 96 95 97 96 94 96 95 94 95 96 93
82 84 83 81 85 85 86 89 91 92 95 94 94 97 96 96 96 97 98 96 97 97 97 98 94 95 94 93 93 94 95 96 94 94 94 97 97 96 98 98 98 98 96 95
90 89 88 92 89 91 94 97 95 97 97 94 94 95 97 100 100 99 99 100 99 98 98 95 93 94 92 90 96 90 95 97 94 97 98 97 99 100 100 100 99 100 100 100
96 95 96 96 98 97 98 97 95 97 97 94 94 98 100 100 100 100 97 97 98 96 94 90 90 91 88 89 90 98 97 98 99 98 100 100 100 100 100 100 100 100 100 100
97 96 96 95 96 97 96 94 94 94 94 95 95 95 94 97 98 98 100 98 96 97 94 94 89 98 92 98 92 99 97 97 99 100 100 100 100 100 100 100 100 100 100 100
96 96 96 96 96 98 96 96 94 90 91 92 96 97 96 95 94 92 95 88 94 99 93 99 99 100 100 99 100 100 100 100 100 100 100 100 100 100 100 100 100 100 100 100
96 96 96 96 92 84 89 91 85 90 95 89 93 95 89 98 99 95 91 97 100 100 100 100 100 100 100 100 100 100 100 100 100 100 100 100 100 100 100 100 100 100 100 100
95 95 92 90 81 85 85 82 86 87 89 87 89 87 83 85 95 97 98 98 100 97 98 100 100 100 100 100 100 100 100 100 100 100 100 100 100 100 100 100 100 100 100 100
91 95 94 94 97 98 95 84 96 97 94 98 98 100 100 100 98 98 98 99 99 100 100 100 100 100 100 100 100 100 100 100 100 100 100 100 100 100 100 100 100 100 100 100
93 93 94 96 96 98 98 96 98 98 98 98 99 100 100 100 100 100 100 100 100 100 100 100 100 100 100 100 100 100 100 100 100 100 100 100 100 100 100 100 100 100 100 100
Wind_Speed
3 3 2 5 8 11 7 9 5 3 5 6 10 4 4 11 12 14 15 16 16 14 13 14 15 13 12 12 12 10 11 10 9 10 3 6 7 8 8 8 9 9 9 10
4 2 6 5 10 9 12 12 10 13 12 9 8 11 6 9 13 10 13 13 14 15 14 14 13 12 13 13 10 10 11 11 10 10 9 9 9 10 5 9 11 11 12 13
2 4 7 6 4 5 6 5 6 6 3 8 11 14 14 14 8 11 10 11 12 13 12 10 11 11 11 10 8 9 10 10 11 10 10 10 9 9 9 9 7 9 7 9
2 3 2 5 10 4 1 4 10 7 3 7 10 6 11 11 13 11 10 10 11 10 11 10 11 10 8 8 9 10 11 10 10 10 9 9 9 9 9 8 8 8 8 10
2 2 6 9 3 5 3 10 3 3 5 14 14 12 10 12 13 14 11 11 10 9 10 10 11 10 8 10 10 11 11 11 12 10 10 10 9 9 9 8 7 9 10 11
1 2 4 5 4 10 5 5 7 6 5 14 10 6 4 7 9 14 12 10 8 8 9 8 12 9 9 11 11 12 11 12 11 11 11 11 11 9 8 7 9 7 10 10
4 3 7 4 8 6 1 5 7 9 8 16 3 7 13 10 13 12 11 11 9 10 11 12 10 9 11 11 13 11 11 11 11 12 12 12 10 9 8 8 7 8 8 8
3 4 8 10 6 0 1 6 9 17 13 18 17 17 16 14 14 13 12 12 12 11 12 12 12 10 12 13 11 10 10 12 13 13 11 10 11 9 10 8 9 9 8 8
5 3 5 6 6 9 7 8 10 15 15 13 16 16 14 11 12 10 10 10 10 10 11 11 12 12 11 9 8 8 10 13 13 13 13 12 14 12 9 10 9 9 8 8
2 6 8 9 10 12 13 15 13 14 13 15 11 13 13 10 11 11 9 9 9 9 10 11 11 11 11 10 9 9 11 12 10 13 15 13 11 12 11 10 10 10 10 9
2 5 9 11 9 9 12 14 15 16 15 15 13 14 12 12 11 8 8 9 9 9 9 11 10 10 10 9 7 8 9 9 9 9 9 11 13 11 11 13 12 8 8 8
3 6 4 7 9 12 13 13 11 14 15 15 13 15 12 11 9 9 9 8 8 8 9 10 11 11 11 10 8 7 8 6 6 6 6 6 5 7 23 23 24 25 22 13
3 8 12 12 12 12 13 12 12 12 11 13 13 13 13 12 10 11 10 8 7 7 8 9 9 10 9 8 8 9 7 8 6 7 6 6 5 5 5 9 21 24 23 24
7 3 8 11 7 10 13 13 14 13 12 12 12 11 11 11 10 10 9 7 8 8 10 8 9 10 9 7 8 9 8 10 6 5 5 5 4 5 4 5 5 7 14 18
12 13 13 10 10 10 9 9 12 11 11 11 11 11 9 11 10 9 8 8 10 11 10 9 9 9 7 6 7 7 5 4 4 4 4 4 3 4 4 5 5 5 5 6
7 8 10 11 11 10 8 10 11 10 11 10 10 11 10 10 11 11 10 11 9 9 9 8 9 7 7 6 7 6 5 7 5 3 3 4 4 5 5 6 6 6 7 7
0 4 5 7 8 9 10 8 10 10 11 10 10 10 10 10 11 11 9 8 8 7 6 6 6 6 6 6 5 3 2 3 5 5 5 4 4 5 5 5 5 6 7 7
9 8 9 8 8 8 9 10 10 9 8 8 8 9 9 8 7 5 5 5 6 6 7 6 4 6 6 5 5 3 3 3 4 4 4 5 5 5 5 5 6 6 5 7
8 10 10 10 8 9 8 8 9 8 7 6 9 9 7 7 5 4 3 7 6 5 7 7 9 7 7 7 5 4 4 4 5 5 5 5 5 5 5 5 5 5 5 5
9 9 9 10 9 9 9 6 8 8 6 8 7 7 7 5 3 4 2 5 1 1 4 5 5 6 6 7 7 4 5 4 5 4 4 4 4 4 4 6 5 5 4 4
7 8 8 8 7 6 5 4 7 7 5 5 7 6 5 3 4 1 4 4 5 4 5 6 6 4 5 5 6 4 4 4 4 4 3 3 4 4 4 4 3 3 2 2
4 7 7 7 7 7 5 6 6 6 6 6 5 4 5 4 3 3 1 3 2 5 4 4 4 6 5 6 4 4 4 4 3 2 3 3 4 3 3 2 2 1 1 1
5 5 6 6 6 5 5 5 4 5 5 4 4 3 3 2 1 2 2 4 3 4 4 3 4 5 5 4 3 3 4 3 3 3 2 2 2 2 1 1 0 0 0 0
4 4 5 4 4 5 5 3 4 4 3 3 3 3 2 2 3 2 2 3 3 4 3 2 3 4 4 3 3 3 3 2 2 1 1 2 1 1 0 0 1 2 2 2
5 5 4 3 3 2 4 4 4 3 3 3 2 2 1 2 3 2 2 1 0 2 1 2 3 3 2 1 1 1 0 1 1 1 1 1 2 2 2 2 3 3 3 3
5 2 2 2 2 1 3 4 2 2 3 1 0 1 1 2 1 1 0 1 1 1 1 2 1 0 0 1 2 2 2 2 2 2 3 3 3 3 3 3 3 3 3 3
4 4 2 2 3 3 2 1 2 3 3 3 2 2 2 1 1 0 0 1 2 2 3 2 2 3 2 2 3 3 3 3 4 3 3 3 2 3 4 4 4 4 3 3
Wind_Direction
262 264 218 263 268 286 249 240 273 339 312 233 202 192 64 71 47 55 50 46 51 52 48 48 49 43 42 40 20 32 55 55 35 16 246 230 213 214 215 211 216 213 213 221
292 8 337 292 293 269 258 240 253 253 268 255 112 128 98 83 101 65 65 53 50 52 51 48 48 44 43 39 16 35 43 45 35 25 25 26 26 23 319 238 229 226 227 228
263 4 327 309 165 316 281 217 220 229 252 149 163 171 154 131 100 93 84 75 57 52 48 43 49 50 48 36 15 31 41 35 31 25 26 16 11 24 17 3 357 8 335 275
223 2 271 255 311 179 238 336 244 294 306 111 98 75 98 106 112 85 64 52 59 57 45 33 41 41 49 49 43 35 33 30 27 22 19 14 18 14 13 1 4 360 357 0
132 189 300 310 29 352 330 296 285 286 308 132 116 89 35 61 89 92 79 67 49 44 56 24 50 42 52 52 48 44 34 30 26 23 21 19 14 6 10 3 7 23 34 25
119 190 240 241 349 350 311 277 355 329 282 157 166 139 138 85 76 79 75 65 59 58 58 39 37 34 43 47 43 41 33 28 25 25 26 21 14 11 4 22 35 42 51 41
214 241 282 319 304 282 85 283 346 308 218 169 152 87 110 91 68 59 53 53 56 55 47 35 31 40 46 48 45 36 38 35 31 33 36 27 21 14 16 42 55 52 57 44
181 213 256 4 345 31 113 44 58 36 66 104 98 92 86 72 61 50 40 34 36 46 41 31 23 40 42 41 36 40 40 44 42 30 38 36 43 35 25 36 45 46 47 48
192 231 57 40 60 4 52 90 78 91 73 74 93 97 95 82 72 58 46 43 39 40 43 32 26 27 41 32 35 45 51 50 49 43 41 40 43 41 45 45 49 48 46 43
159 144 96 75 63 48 50 62 71 69 75 85 81 83 83 80 69 58 41 43 49 51 49 43 32 32 33 23 26 39 47 45 41 50 46 41 41 41 42 42 45 45 47 41
40 95 97 65 61 60 63 70 71 72 75 82 90 81 84 82 76 66 51 40 47 49 52 47 40 37 28 30 32 55 52 46 45 43 44 50 48 43 45 47 52 54 45 47
28 336 51 58 48 61 62 62 68 81 81 79 85 87 79 74 71 73 66 49 56 48 53 46 46 41 27 21 37 47 61 50 38 49 49 47 59 65 54 55 53 54 55 57
87 63 86 89 62 60 71 70 66 65 69 85 80 92 93 88 81 76 67 59 46 45 44 44 43 39 22 24 42 51 53 50 46 46 44 44 42 44 49 33 49 50 49 52
6 204 78 45 83 82 83 80 78 79 77 80 87 85 91 93 83 76 71 67 59 50 45 37 42 37 16 13 43 48 49 45 50 44 44 41 30 32 30 37 37 32 36 38
49 61 87 93 82 77 87 88 82 79 84 81 81 89 97 98 89 68 62 67 59 49 35 28 34 26 5 27 49 44 45 39 38 39 40 43 33 46 47 47 44 35 17 29
59 66 75 78 78 69 80 86 90 87 83 85 86 85 84 83 80 68 55 51 61 47 28 19 26 359 9 25 39 39 31 46 44 40 38 45 47 59 56 51 48 41 36 25
77 77 83 81 75 74 72 74 91 95 95 96 96 94 94 86 77 68 54 50 56 44 13 16 2 350 15 29 39 28 28 39 41 53 50 49 48 53 58 63 59 52 44 23
65 61 56 82 97 98 84 74 75 81 85 89 89 90 84 78 81 70 52 46 46 38 21 343 347 4 12 22 28 24 28 51 60 63 58 56 60 57 55 58 58 60 48 42
64 76 72 75 81 93 93 89 90 93 89 90 88 83 86 84 77 63 30 54 42 32 355 343 21 27 27 33 43 43 51 53 53 50 59 58 55 59 63 63 62 52 54 52
65 67 70 70 63 80 89 72 83 78 70 95 95 84 80 66 78 73 54 78 30 290 317 1 23 28 33 35 37 46 50 48 68 66 55 67 59 58 53 67 69 66 62 56
74 78 78 78 72 64 76 93 105 98 92 85 96 99 103 64 56 102 57 68 2 11 31 35 33 26 28 33 44 42 49 58 61 67 72 78 67 58 59 55 61 71 72 60
73 89 87 88 90 85 74 87 91 91 91 91 90 96 95 84 80 85 144 83 14 27 38 33 30 24 39 41 45 45 54 58 64 60 68 67 75 73 62 47 61 46 83 92
77 83 81 73 76 72 69 65 81 99 103 102 104 95 67 58 67 68 45 14 38 42 47 35 20 51 55 55 52 55 61 59 58 67 79 89 108 114 115 110 230 154 278 294
91 79 78 82 96 97 90 91 100 104 106 112 120 144 92 72 6 46 80 66 58 59 47 1 28 45 63 61 58 60 58 63 65 68 100 117 132 150 79 231 234 231 252 275
122 124 134 160 162 149 145 137 119 115 120 128 136 131 145 142 153 219 167 212 184 88 34 357 33 53 61 79 89 90 152 219 223 187 203 208 222 234 241 235 237 245 253 247
155 130 105 63 76 132 155 164 164 156 143 145 197 347 353 359 23 48 115 242 249 296 269 290 299 268 300 279 260 248 240 253 226 220 216 231 223 231 229 236 245 248 248 251
77 83 85 58 30 33 55 86 147 180 169 150 189 241 213 289 324 177 72 322 329 308 289 274 264 262 246 256 265 264 251 244 228 234 228 239 235 241 241 238 235 241 248 249